Vertical_Velocity
3 -0 0 -0 2 -1 -2 -4 -4 -6 -4 -1 -1 -1 0 0 -0 -3 -1 0 -2 4 8 8 9 0 -1 -1 7 7 -1 -1 -3 5 -9 5 8 4 2 -0 0 2 -3
-1 0 -1 -3 -4 -4 -5 -5 -3 -2 -2 -4 -3 -0 1 -2 -2 -2 1 -1 -2 3 3 7 0 7 1 4 4 8 0 2 -5 -5 0 3 -1 3 2 1 2 1 1
-2 -2 -2 -1 -0 -0 0 -2 -3 -4 -4 -3 -3 -5 -4 -2 -0 -1 1 3 -1 0 2 -0 2 4 8 3 -3 -18 -1 3 0 -4 2 -2 3 1 1 1 1 1 0
1 1 1 -1 -0 -0 -0 -0 -0 0 0 -1 -1 -1 -2 -1 -2 -3 -4 -4 -4 -1 -0 -2 -1 -2 3 8 -1 -2 0 -1 1 -1 -3 -3 -1 3 3 5 4 -2 -1
-0 -2 -2 -1 1 1 0 -1 1 1 -0 2 2 0 0 -0 -1 1 -1 -0 -0 -0 2 1 1 4 6 1 -1 -1 0 3 1 1 -2 -3 1 0 3 -1 -2 1 3
-1 -1 -1 -0 -1 -0 -0 -0 0 1 -0 -0 -1 -1 -2 -3 -2 -3 -2 -1 -1 -2 -1 -1 -2 -1 8 -2 -3 -1 1 3 0 2 -4 -3 5 1 4 0 -4 1 -4
-2 -0 1 -1 -1 0 1 1 -0 -1 -2 -2 -3 -2 -0 -0 -1 -1 -4 -3 -1 -0 -1 1 0 4 -1 -1 6 1 -0 -3 -2 0 -2 5 -4 1 -1 3 1 -3 -0
0 -1 -0 -0 -1 -1 0 -1 -0 -1 -1 -0 -1 -2 -1 -2 -2 -2 -3 -1 -0 -0 0 -2 -0 3 3 3 3 5 4 4 1 -4 -5 5 0 3 -4 2 3 -0 -0
-2 -2 -1 1 -1 -1 -4 -3 -1 -0 -2 -2 -1 -1 -1 -3 -2 -2 -1 -1 -0 2 1 2 1 -1 7 1 3 2 -2 -2 -2 -0 -2 -2 -4 1 3 -2 1 -6 -4
4 3 2 -1 -1 -1 -2 1 2 1 2 0 -0 -2 -0 -0 -1 -0 -1 -2 -1 -1 1 1 1 -1 1 6 5 5 3 3 4 2 1 1 1 -1 -0 -3 5 -3 -2
0 -0 -2 -0 1 -2 -2 -0 3 3 2 -1 -1 -1 -1 0 -1 -2 -1 -2 -1 0 2 7 7 7 6 7 8 1 1 2 0 -0 -1 -0 2 1 -0 -1 2 -4 2
-2 2 1 -1 -2 -4 0 4 3 1 0 -2 -1 -2 -1 -3 -2 -1 -2 -2 -2 0 1 1 2 4 6 1 1 -1 -1 -0 -1 1 -1 -1 -1 0 -0 -3 -1 1 -3
1 1 -1 -1 -2 -1 2 2 0 -2 -2 -1 -1 -1 -1 -3 -3 -3 -2 -2 -2 -0 2 -1 3 10 -1 -1 0 3 -2 -1 -3 -1 2 1 -1 -3 -0 -1 0 -1 2
0 -0 -1 -2 -1 0 -1 -1 -2 1 -0 -1 -0 -1 -1 -1 -2 -3 -1 -1 -1 -1 0 -0 0 -0 1 1 2 1 0 -2 -1 -2 -3 3 3 0 1 -3 0 1 -3
0 -0 -1 0 -0 -1 -1 -1 -0 1 1 -0 -2 -1 -0 2 -0 -2 -0 -2 -3 -1 1 3 0 1 -0 1 1 -1 -2 -1 -2 -1 -2 -1 1 2 -0 -1 -2 -3 -2
1 0 -0 -2 -1 1 0 -2 -2 -4 -3 -4 -3 -3 -1 -2 -1 -0 -0 -0 -0 -0 0 1 1 -1 -2 -1 -0 -0 1 -0 -1 -1 -1 -1 -2 -1 1 -0 -2 -3 -3
-1 -0 -0 -0 -0 -1 -3 -4 -5 -4 -4 -4 -4 -2 -1 -1 -2 -1 -1 -0 -1 -1 0 1 1 0 -1 -2 0 1 0 2 2 -1 -2 -1 -1 -1 0 -0 1 -1 0
1 0 -0 -1 -2 -3 -4 -4 -3 -2 -2 -3 -3 -2 -2 -1 -1 -2 -1 -1 -1 0 1 2 2 1 0 -2 -2 -2 -1 -2 -3 -3 -2 -1 -2 -3 -2 -2 -1 -2 -1
-1 -1 -1 -2 -2 -3 -3 -3 -1 -1 0 0 -2 -2 -3 -1 -0 -0 0 0 0 -0 -0 -0 0 -1 -1 -1 -1 0 -1 -2 -1 -1 -1 -0 -1 -1 -1 -3 -3 1 -3
-2 -2 -2 -3 -3 -3 -3 -1 -1 -1 -2 -1 -1 -2 -2 -3 -3 -1 0 1 1 0 0 0 1 1 -1 -0 0 -2 -1 -1 -1 -1 -1 -1 -1 -1 -1 -2 -1 -4 0
-2 -2 -1 -2 -1 -1 0 1 -0 -2 -2 -1 -0 1 1 0 1 1 -0 -0 -1 -1 -0 1 1 -1 -1 -0 0 -0 -0 1 0 -1 -1 1 0 -1 -1 -1 -2 -1 -3
-2 -1 -1 -0 1 1 -1 -0 -1 1 1 0 -1 -1 -0 0 -0 -0 -0 -1 -1 -1 0 -0 -1 -2 -1 -1 -1 -1 -1 -1 -1 -0 -0 -1 -2 -0 -2 -2 -3 -2 -2
1 1 2 0 -0 -0 -1 0 -1 -0 0 0 0 -1 -1 -1 -1 -1 -1 -1 -1 -1 -1 -1 -1 -0 -1 -1 -1 -1 -2 -1 -1 -3 -3 -5 -4 -2 -2 -1 -2 -2 -1
1 -1 -1 -0 1 -1 -0 0 -1 -1 0 -1 -1 -1 -1 -2 -2 -1 -1 -0 -1 -1 0 -1 -1 -2 -2 -2 -2 -2 -3 -6 -7 -10 -10 -7 -4 -2 -0 0 0 -1 -1
0 1 0 -1 1 -0 1 -0 -0 -2 -1 -1 -0 -0 -0 -1 -1 -1 -1 -2 -1 -2 -2 -2 -3 -3 -2 -2 -2 -2 -2 -4 -6 -7 -5 -4 -4 -3 -1 1 2 2 1
-1 0 1 -1 -1 -2 -0 -0 -0 -0 -0 -0 -0 1 1 0 -1 -1 -0 -1 -2 -1 -1 -1 -2 -3 -2 -2 -2 -2 -3 -2 -2 2 -3 -1 -4 -3 1 -0 3 -0 -0
Height
3190 3190 3189 3188 3187 3185 3183 3182 3181 3179 3177 3175 3175 3175 3175 3175 3173 3173 3172 3171 3170 3171 3172 3172 3174 3174 3174 3173 3173 3174 3175 3174 3172 3175 3176 3177 3176 3176 3176 3176 3176 3176 3177
3184 3183 3182 3181 3180 3178 3176 3174 3173 3171 3169 3168 3166 3165 3165 3166 3166 3165 3164 3164 3163 3163 3166 3164 3167 3167 3167 3167 3167 3168 3168 3168 3166 3167 3168 3169 3169 3170 3170 3169 3169 3170 3171
3180 3178 3176 3175 3173 3171 3170 3168 3167 3166 3164 3162 3161 3160 3159 3158 3157 3157 3157 3156 3156 3155 3156 3157 3159 3160 3161 3155 3162 3161 3161 3160 3160 3159 3161 3162 3163 3163 3163 3163 3163 3162 3163
3175 3173 3172 3170 3169 3167 3165 3162 3160 3158 3156 3154 3152 3151 3150 3150 3149 3148 3148 3147 3147 3147 3148 3148 3150 3151 3152 3153 3154 3155 3155 3155 3155 3153 3154 3155 3156 3156 3156 3156 3156 3156 3157
3171 3169 3168 3167 3165 3163 3160 3157 3155 3153 3150 3147 3145 3143 3141 3140 3139 3138 3137 3137 3138 3139 3139 3140 3141 3141 3143 3145 3146 3147 3147 3147 3147 3147 3148 3149 3149 3150 3150 3149 3149 3149 3150
3166 3165 3163 3160 3158 3155 3153 3151 3148 3145 3143 3141 3138 3137 3135 3133 3132 3130 3128 3129 3129 3129 3130 3130 3130 3132 3133 3135 3137 3138 3139 3139 3140 3141 3141 3141 3143 3143 3142 3141 3141 3142 3142
3163 3160 3158 3155 3152 3150 3147 3145 3143 3140 3137 3134 3130 3128 3126 3124 3123 3121 3119 3119 3118 3119 3120 3121 3121 3122 3123 3126 3128 3128 3129 3130 3131 3133 3133 3134 3134 3135 3135 3134 3133 3133 3134
3158 3156 3153 3149 3146 3144 3141 3138 3136 3133 3130 3127 3123 3121 3118 3115 3113 3112 3110 3109 3109 3110 3111 3112 3114 3115 3116 3117 3119 3120 3119 3120 3122 3124 3124 3125 3126 3126 3126 3125 3124 3124 3126
3152 3150 3147 3144 3141 3138 3136 3134 3131 3128 3124 3121 3117 3113 3111 3108 3105 3102 3101 3100 3100 3101 3102 3103 3105 3107 3109 3109 3111 3111 3112 3112 3114 3113 3115 3115 3116 3117 3117 3116 3117 3118 3116
3148 3145 3143 3140 3137 3135 3132 3129 3125 3122 3118 3115 3111 3107 3104 3102 3098 3095 3093 3092 3092 3092 3094 3096 3098 3099 3100 3101 3102 3103 3105 3105 3105 3106 3107 3106 3105 3106 3107 3106 3106 3108 3108
3144 3141 3138 3135 3132 3129 3126 3123 3120 3117 3113 3109 3105 3101 3099 3097 3093 3090 3087 3085 3084 3085 3087 3089 3089 3092 3093 3093 3094 3095 3096 3097 3097 3098 3098 3099 3098 3097 3097 3097 3096 3098 3098
3137 3134 3131 3128 3126 3123 3121 3118 3115 3112 3108 3104 3100 3096 3093 3090 3088 3086 3084 3081 3080 3080 3081 3083 3084 3084 3085 3086 3086 3086 3087 3087 3088 3088 3089 3089 3088 3088 3088 3088 3088 3088 3088
3132 3130 3126 3123 3120 3118 3117 3114 3111 3107 3102 3098 3095 3092 3088 3086 3084 3082 3080 3078 3076 3075 3076 3077 3078 3079 3079 3079 3079 3079 3079 3079 3080 3080 3079 3079 3078 3078 3079 3079 3080 3080 3079
3128 3125 3122 3119 3116 3114 3111 3108 3104 3101 3097 3093 3090 3088 3085 3082 3080 3078 3076 3074 3073 3072 3072 3072 3072 3072 3073 3073 3072 3071 3071 3071 3071 3071 3071 3071 3069 3069 3070 3069 3069 3069 3069
3122 3119 3116 3113 3110 3107 3104 3101 3098 3096 3093 3090 3086 3083 3081 3078 3075 3073 3071 3069 3068 3067 3066 3066 3065 3065 3065 3065 3065 3065 3064 3063 3062 3061 3060 3059 3059 3059 3059 3058 3057 3057 3057
3115 3113 3111 3108 3106 3102 3099 3096 3094 3091 3088 3086 3083 3079 3076 3073 3071 3068 3066 3065 3064 3062 3061 3061 3060 3059 3059 3058 3057 3057 3055 3054 3053 3052 3051 3050 3049 3049 3048 3048 3047 3046 3046
3111 3109 3107 3104 3101 3098 3096 3092 3088 3085 3082 3080 3078 3075 3072 3069 3066 3063 3061 3060 3058 3057 3056 3055 3054 3053 3052 3051 3050 3048 3047 3046 3044 3043 3042 3041 3040 3039 3038 3037 3036 3035 3034
3106 3104 3102 3099 3097 3094 3091 3088 3085 3081 3078 3075 3073 3071 3069 3066 3063 3061 3058 3056 3054 3052 3051 3049 3048 3046 3045 3043 3041 3040 3038 3037 3036 3034 3033 3031 3029 3028 3027 3026 3024 3023 3022
3101 3099 3097 3095 3092 3090 3087 3084 3082 3079 3076 3073 3070 3068 3066 3063 3061 3059 3056 3054 3051 3049 3047 3045 3043 3041 3039 3037 3035 3033 3032 3030 3028 3026 3024 3021 3018 3016 3015 3013 3011 3011 3009
3097 3095 3092 3090 3088 3085 3083 3081 3078 3075 3073 3070 3068 3065 3063 3060 3059 3056 3053 3051 3048 3046 3043 3041 3039 3036 3034 3032 3030 3028 3025 3023 3020 3018 3014 3011 3008 3004 3002 3001 2999 2997 2997
3091 3090 3088 3086 3083 3081 3079 3077 3075 3072 3070 3068 3065 3063 3061 3058 3056 3053 3051 3048 3046 3043 3041 3038 3036 3033 3030 3027 3025 3022 3019 3015 3012 3009 3005 3001 2997 2994 2990 2987 2986 2984 2982
3087 3085 3083 3081 3079 3077 3075 3073 3071 3069 3067 3065 3063 3060 3058 3055 3053 3050 3047 3045 3042 3040 3037 3033 3030 3027 3024 3021 3018 3015 3011 3007 3003 2999 2995 2990 2986 2981 2977 2974 2972 2971 2969
3082 3080 3078 3077 3075 3073 3071 3069 3067 3065 3063 3061 3060 3058 3055 3053 3050 3048 3045 3042 3039 3036 3032 3028 3025 3022 3018 3015 3011 3007 3002 2998 2994 2987 2980 2975 2970 2966 2963 2960 2959 2958 2956
3077 3075 3074 3072 3071 3069 3067 3065 3063 3061 3060 3058 3056 3054 3052 3050 3048 3045 3043 3040 3036 3033 3029 3026 3022 3018 3013 3009 3004 3000 2995 2988 2982 2975 2968 2960 2954 2950 2945 2944 2945 2944 2944
3071 3070 3069 3068 3066 3064 3062 3060 3059 3057 3056 3054 3052 3050 3049 3047 3044 3042 3039 3036 3032 3029 3026 3021 3016 3012 3008 3004 2998 2993 2988 2982 2975 2966 2958 2950 2943 2937 2932 2930 2931 2932 2932
3065 3064 3063 3061 3060 3059 3057 3056 3054 3053 3051 3050 3048 3046 3045 3043 3041 3038 3035 3033 3030 3026 3021 3016 3012 3008 3003 2999 2993 2987 2981 2975 2968 2960 2949 2941 2935 2929 2924 2920 2921 2921 2922